Location: Bruchhof
(51.8738°N, 9.9256°E)
Time: 23:51:04
(UTC+00:00)

Cosmos 1892 - Visible Passes

Search period start: 16 September 2024 00:00
Search period end: 26 September 2024 00:00
Orbit: 440 x 456 km, 82.5° (Epoch: 16 September)

Date Brightness Start Highest point End Pass type
(mag) Time Alt. Az. Time Alt. Az. Time Alt. Az.
17 Sep 5.9 21:48:41 10° NNW 21:48:44 10° NNW 21:48:44 10° NNW visible
18 Sep 5.6 21:12:37 10° N 21:12:50 11° N 21:12:50 11° N visible
19 Sep 5.4 20:36:47 10° NNE 20:36:54 11° NNE 20:36:54 11° NNE visible
20 Sep 5.9 21:34:29 10° NNW 21:34:30 10° NNW 21:34:30 10° NNW visible
21 Sep 5.6 20:58:08 10° N 20:58:26 12° N 20:58:26 12° N visible
22 Sep 5.3 20:22:00 10° N 20:22:20 12° N 20:22:20 12° N visible
23 Sep 5.9 21:19:42 10° NNW 21:19:45 10° NNW 21:19:45 10° NNW visible
24 Sep 5.5 20:43:05 10° N 20:43:32 13° N 20:43:32 13° N visible
25 Sep 5.1 20:06:41 10° N 20:07:16 14° N 20:07:16 14° N visible
